Погода в Сеймчане

Погода в Сеймчане : погода сейчас, прогноз погоды и архив. Всё, что Вы хотите узнать о погоде в Сеймчане!

Хотите узнать прогноз погоды в Сеймчане? Тогда Вам сюда: Погода в Сеймчане

Поиск расширенной информации на нашем сайте:

Другие новости

Новости СМИ2

Главная страница сайта

Новости сайта

03.07.2017

Напоминаем, что на нашем специализированном сайте Метеоцентр.Азия вы можете получить высокодетализированные автоматические прогнозы погоды по пунктам России, СНГ и мира в авиационном формате (включающие направление и скорость ветра, видимость, явления погоды, количество и форму облачности, нижнюю и верхнюю границу облачности).

Рекомендуем: Если плохие окна необходимо грамотно выбрать нащельник со склада.

Погода в Сеймчане - сегодня

Время (UTC), дата Ветер
(°,м/с) 
Видим.   Явления Облачность Т
(°С)
Тd
(°С)
f(%) Тe
(°С)
Pmin
(гПа)
dP
(гПа)
Po
(мм)
O2
(г/м3)
Тmin Tmax R s Состояние
почвы
18 17.09.17 330 (СЗ) 20000 м  {ливн. осадки}  9/6 1000 м кучево-дожд., средняя 
[Cb calv|Ac trans]
+1.7 +1.3 97 +2  1003.8  0.1  734  293           
00 18.09.17 060 (СВ) 20000 м    8/4 1000 м средняя 
[Sc|Ac trans]
+8.6 +4.8 77 +9  1006.6  2.4  736  287           
03 18.09.17 030 (СВ) 20000 м    8/3 1000 м средняя 
[Cu Sc|Ac trans]
+9.5 +2.7 62 +8  1007.9  1.3  737  287           
12 18.09.17 040 (СВ) 20000 м    9/8 1000 м средняя 
[Sc|Ac trans]
+1.8 -2.4 74 +3  1017.3  2.1  743  298           
15 18.09.17 010 (С) 20000 м    8/6 1000 м средняя 
[Sc|Ac trans]
+0 -3.2 79 -1  1018  0.5  744  300           
18 18.09.17 030 (СВ) 20000 м    8/6 1000 м средняя 
[Sc|Ac trans]
-0.6 -3.1 83 1019  0.9  744  301           
21 18.09.17 040 (СВ) 20000 м    9/6 1000 м средняя 
[Sc|Ac trans]
+0.6 -2.9 77 +1  1019.6  0.7  745  300  -1.3         
00 19.09.17 090 (В) 20000 м    3/3 1000 м средняя 
[Sc|Ac trans]
+3.7 -3.1 61 +5  1019.3  745  296           
03 19.09.17 160 (Ю) 20000 м    ясно 
+6.8 -2.7 51 +8  1018.2  -0.9  744  293           
06 19.09.17 170 (Ю) 20000 м    ясно 
+8.8 -2.2 46 +10  1017.2  -0.8  744  291           
09 19.09.17 320 (СЗ) 20000 м    1/0 средняя 
[Ac trans]
-0.6 -3.6 80 1018.5  0.5  744  301    +9.1       
12 19.09.17 320 (СЗ) 20000 м    4/0 средняя, верхняя 
[Ac trans|Ci fib]
-4.8 -6.2 90 -4  1019.1  0.2  744  306           
15 19.09.17 280 (З) 20000 м    4/0 средняя, верхняя 
[Ac trans|Ci fib]
-7.3 -8.1 94 -7  1018.9  -0.4  744  309           
18 19.09.17 тихо ()   20000 м    3/0 средняя, верхняя 
[Ac trans|Ci fib]
-8 -8.8 94 -8  1018.6  -0.4  744  310           
21 19.09.17 240 (ЮЗ) 20000 м    9/3 200 м средняя, верхняя 
[St|Ac trans|Ci fib]
-5.3 -6.3 93 -5  1018.5  -0.4  744  306  -8.4         
00 20.09.17 тихо ()   20000 м    9/0 верхняя 
[Ci fib]
+4 -1.5 67 +4  1016.6  -1  743  295           
03 20.09.17 320 (СЗ) 20000 м    9/0 средняя, верхняя 
[Ac trans|Ci fib]
+10.2 -0.4 48 +11  1013.7  -2.2  741  288           
06 20.09.17 тихо ()   20000 м    9/0 средняя, верхняя 
[Ac trans|Ci fib]
+11.7 +0.7 47 +12  1012.2  -2.2  740  286           
09 20.09.17 340 (С) 20000 м    9/0 средняя, верхняя 
[Ac trans|Ci fib]
+4.8 -0.2 70 +6  1012.5  -0.3  740  293    +12.4       
12 20.09.17 тихо ()   20000 м    9/0 средняя, верхняя 
[Ac trans|Ci fib]
+2.7 -0.8 78 +3  1012.4  -0.3  740  295           
15 20.09.17 270 (З) 20000 м    9/0 средняя, верхняя 
[Ac trans|Ci fib]
-1.4 -2.9 89 -1  1012.6  -0.2  740  300           
18 20.09.17 270 (З) 20000 м    9/0 средняя, верхняя 
[Ac trans|Ci fib]
-4.4 -5 96 -4  1012.9  740  303           
21 20.09.17 тихо ()   20000 м    3/0 средняя, верхняя 
[Ac trans|Ci fib]
-1.8 -3.1 91 -2  1012.8  0.1  740  300  -5.4         
00 21.09.17 тихо ()   20000 м    8/0 средняя, верхняя 
[Ac trans|Ci fib]
+10.1 -0.7 47 +10  1011.1  -0.5  739  287           
03 21.09.17 160 (Ю) 20000 м    8/0 средняя, верхняя 
[Ac trans|Ci fib]
+15.4 -1.2 32 +16  1009  -1.6  738  282           
Время (UTC), дата Ветер
(°,м/с) 
Видим.   Явления Облачность Т
(°С)
Тd
(°С)
f(%) Тe
(°С)
Pmin
(гПа)
dP
(гПа)
Po
(мм)
O2
(г/м3)
Тmin Tmax R s Состояние
почвы

Для получения пояснительной информации подведите курсор к названию столбца.

ПОГОДА в Сеймчане - архив

Всё, что Вы хотите узнать о погоде в Сеймчане - удобно и подробно!

Выберите нужную дату (начиная с 1 января 2015* года) и нажмите кнопку "Найти".
Будут отображены архивные сводки погоды по пункту Сеймчан, начиная с указанной даты.


Отображать данные в формате CSV (для использования в таблицах Excel)


Внимание! Наш архив погоды предназначен исключительно для личного некоммерческого использования в познавательных целях. Если Вам необходимы официальные справки о состоянии погоды (для производственных, юридических, коммерческих и т.п. целей), обращайтесь в органы Росгидромета.

*Примечание: данная дата относится к архиву по метеостанциям СССР (Россия, СНГ, Балтия).
Архив по метеостанциям Зарубежной Европы и Азии (кроме Китая) хранится 10 дней, по другим регионам земного шара (Китай, Африка, Америка, Австралия, Океания) - 1 день.

Сеймчан - район местоположения метеостанции


Название, широта, долгота, высота метеостанции:
Сеймчан 62.9°ш. 152.4°д. 205 м над ур. моря [Российская Федерация]

Дополнительная информация

В oтличие oт бoльшинства пoгoдных сайтoв мы публикуем пoдрoбную метеoинфoрмацию в детальнoм прoфессиoнальнoм фoрмате.

Характеристики температуры и влажнoсти вoздуха измеряются на высoте 2 м в тени вдали oт зданий и деревьев.
Скoрoсть ветра измеряется на высoте 10 м (на урoвне рoста челoвека скoрoсть ветра ниже в 1.5-2 раза). Если метеoстанция нахoдится в гoрoде или в лесу, тo скoрoсть ветра занижена на 2-4 м/с пo сравнению с oткрытым местoм. Скoрoсть ветра над акватoриями крупных рек и oзёр, а также на вершинах хoлмoв на 2-5 м/с выше, чем в oбычных услoвиях.
Атмoсфернoе давление в разных тoчках местнoсти мoжет значительнo oтличаться oт давления на метеoстанции, в зависимoсти oт услoвий рельефа (при пoдъёме на 10 м давление пoнижается примернo на 1 мм рт.ст.).